PDT,Max TemperatureF,Mean TemperatureF,Min TemperatureF,Max Dew PointF,MeanDew PointF,Min DewpointF,Max Humidity, Mean Humidity, Min Humidity, Max Sea Level PressureIn, Mean Sea Level PressureIn, Min Sea Level PressureIn, Max VisibilityMiles, Mean VisibilityMiles, Min VisibilityMiles, Max Wind SpeedMPH, Mean Wind SpeedMPH, Max Gust SpeedMPH,PrecipitationIn, CloudCover, Events, WindDirDegrees
2013-9-1,93,75,57,56,49,47,72,45,22,29.82,29.75,29.67,10,10,10,10,4,,0.00,0,,128
2013-9-2,90,79,70,65,55,50,81,48,31,29.84,29.78,29.71,10,10,10,10,7,,0.04,2,Rain,249
2013-9-3,91,77,64,60,56,49,84,53,25,29.90,29.86,29.82,10,10,10,12,5,,0.00,0,,241
2013-9-4,93,75,59,65,56,52,90,55,27,29.95,29.89,29.83,10,10,10,12,5,,0.00,0,,214
2013-9-5,84,71,60,64,56,53,87,64,41,29.95,29.87,29.76,10,10,2,22,6,31,0.22,2,Rain,233
2013-9-6,73,64,57,56,52,48,81,64,49,30.09,30.04,29.97,10,10,10,17,9,24,0.00,3,,230
2013-9-7,81,66,51,55,52,49,93,68,39,30.10,30.04,29.96,10,10,10,12,4,,0.00,0,,86
2013-9-8,82,68,54,56,53,50,90,63,35,30.07,30.01,29.94,10,10,9,8,2,,0.00,1,,162
2013-9-9,89,70,53,55,52,50,89,58,27,29.99,29.91,29.85,10,10,10,7,4,,0.00,0,,91
2013-9-10,93,72,51,56,52,49,92,55,22,29.97,29.90,29.84,10,10,10,9,4,,0.00,0,,89
2013-9-11,95,74,54,57,54,51,93,55,26,29.99,29.92,29.87,10,10,9,8,4,,0.00,0,,149
2013-9-12,91,73,55,57,54,52,87,57,27,29.94,29.87,29.80,10,10,4,6,1,,0.00,0,,172
2013-9-13,93,76,59,62,56,51,78,54,27,29.83,29.76,29.67,10,10,7,12,4,,0.00,0,,199
2013-9-14,95,75,57,58,55,51,81,52,28,29.80,29.72,29.65,10,10,10,14,4,,0.00,0,,124
2013-9-15,97,78,59,63,57,54,88,61,24,29.74,29.63,29.49,10,9,0,32,8,50,0.01,1,Rain,349
2013-9-16,78,70,61,55,51,48,75,57,35,29.89,29.83,29.75,10,10,10,21,15,31,0.00,1,,234
2013-9-17,73,64,55,52,49,45,86,65,38,29.86,29.78,29.71,10,10,10,21,7,31,0.00,4,Rain,233
2013-9-18,75,64,46,46,42,38,83,51,28,30.05,29.97,29.87,10,10,10,21,12,29,0.00,2,,230
2013-9-19,81,61,42,46,42,39,89,57,24,30.06,29.95,29.79,10,10,10,14,5,,0.00,0,,65
2013-9-20,81,62,43,48,43,39,89,54,25,29.78,29.65,29.53,10,10,10,14,3,,0.00,0,,235
2013-9-21,73,64,55,51,49,46,80,58,41,29.70,29.65,29.61,10,10,10,16,6,31,0.00,1,Rain,226
2013-9-22,73,64,55,54,49,42,87,67,35,29.79,29.71,29.64,10,10,5,16,9,24,0.08,5,Rain,230
2013-9-23,69,58,48,48,46,41,80,62,42,29.94,29.91,29.81,10,10,10,14,8,18,0.00,4,,224
2013-9-24,64,56,50,50,46,41,89,69,46,29.92,29.85,29.80,10,10,10,15,8,20,0.06,5,Rain,214
2013-9-25,68,57,46,45,42,36,83,62,31,29.89,29.82,29.78,10,10,10,13,7,20,0.00,4,,238
2013-9-26,66,56,48,46,42,40,80,64,42,30.06,30.00,29.91,10,10,10,9,6,,0.00,6,Rain,245
2013-9-27,66,56,48,50,44,37,89,68,38,30.09,30.03,29.93,10,10,5,17,9,22,0.15,5,Rain,212
2013-9-28,73,62,52,54,50,45,93,65,39,29.92,29.67,29.44,10,10,8,26,7,39,0.10,6,Rain,208
2013-9-29,68,59,52,50,44,42,86,58,43,29.68,29.60,29.35,10,10,10,28,16,40,0.06,4,Rain,204
2013-9-30,66,56,48,54,41,36,88,58,38,29.97,29.78,29.48,10,10,3,28,18,46,0.11,3,Rain,244